This is the latest recevied weather packets stored in our database for station/object AI4QX-5. If no packets are shown the sender has not sent any weather packets the latest 10 day(s).
| Time | Temp. | Humidity | Pressure | Rain* | Wind** | Luminosity | Snow |
|---|---|---|---|---|---|---|---|
| 1777426800 | 26.67° C | 35% | 1016.6 hPa | 0 mm | - | - | - |
| 1777426200 | 27.22° C | 35% | 1016.7 hPa | 0 mm | - | - | - |
| 1777425600 | 27.22° C | 35% | 1016.5 hPa | 0 mm | - | - | - |
| 1777425000 | 27.22° C | 34% | 1016.4 hPa | 0 mm | - | - | - |
| 1777424401 | 27.22° C | 34% | 1016.6 hPa | 0 mm | - | - | - |
| 1777423800 | 27.22° C | 33% | 1016.6 hPa | 0 mm | - | - | - |
| 1777423200 | 27.22° C | 33% | 1016.6 hPa | 0 mm | - | - | - |
| 1777422601 | 27.22° C | 34% | 1016.7 hPa | 0 mm | - | - | - |
| 1777422000 | 27.22° C | 34% | 1016.7 hPa | 0 mm | - | - | - |
| 1777421400 | 27.22° C | 34% | 1016.5 hPa | 0 mm | - | - | - |
| 1777420800 | 27.78° C | 35% | 1016.4 hPa | 0 mm | - | - | - |
| 1777420201 | 27.78° C | 35% | 1016.3 hPa | 0 mm | - | - | - |
| 1777419600 | 27.78° C | 37% | 1016.2 hPa | 0 mm | - | - | - |
| 1777419000 | 27.78° C | 35% | 1016.1 hPa | 0 mm | - | - | - |
| 1777418400 | 27.78° C | 35% | 1016.1 hPa | 0 mm | - | - | - |
| 1777417800 | 27.78° C | 37% | 1016.2 hPa | 0 mm | - | - | - |
| 1777417200 | 28.33° C | 33% | 1016.2 hPa | 0 mm | - | - | - |
| 1777416600 | 28.33° C | 34% | 1016.4 hPa | 0 mm | - | - | - |
| 1777416000 | 27.78° C | 35% | 1016.4 hPa | 0 mm | - | - | - |
| 1777415400 | 28.33° C | 31% | 1016.7 hPa | 0 mm | - | - | - |
| 1777414800 | 28.89° C | 28% | 1016.7 hPa | 0 mm | - | - | - |
| 1777414200 | 29.44° C | 28% | 1016.8 hPa | 0 mm | - | - | - |
| 1777413000 | 29.44° C | 29% | 1016.8 hPa | 0 mm | - | - | - |
| 1777412400 | 29.44° C | 28% | 1016.8 hPa | 0 mm | - | - | - |
| 1777411800 | 29.44° C | 29% | 1016.8 hPa | 0 mm | - | - | - |
* Rain latest hour (hover to see other rain measurements)
** Current wind speed in m/s (hover to see current wind gust speed)